Location: G�ndlingen
(48.0142°N, 7.6396°E)
Time: 19:14:27
(UTC+00:00)

TSX-5 - Pass Details

Date: 05 July 2020
Orbit: 404 x 1328 km, 68.9° (Epoch: 11 August)

Event Time Altitude Azimuth Distance (km) Brightness Sun altitude
Rises 21:30:34 0° 332° (NNW) 2,404 9.1 -14.1°
Reaches altitude 10° 21:32:31 10° 336° (NNW) 1,589 7.6 -14.2°
Maximum altitude 21:35:55 59° 57° (ENE) 590 3.9 -14.5°
Enters shadow 21:38:07 24° 130° (SE) 1,153 4.9 -14.7°
